GFSFLT1_prec_cthk_090.txt.gz
RH
28 30 44 58 65 66 70 74 81 80 91 95 97 99 99 98 94 90 83 76 76 72 72 73 75 80 84 83 81 81 77 74
30 27 42 59 65 64 68 71 76 84 94 98 98 98 97 97 93 88 84 82 80 82 84 86 87 85 89 87 86 84 82 79
32 28 37 49 65 67 69 70 69 80 90 94 94 97 98 96 93 91 86 84 89 88 88 89 86 88 88 86 84 84 83 80
31 33 29 42 53 60 65 68 70 73 83 92 96 97 98 97 95 93 89 89 89 85 85 85 87 84 84 84 83 80 79 74
28 33 32 29 41 49 57 65 72 74 80 90 91 94 95 96 95 92 91 87 86 87 84 84 83 83 82 81 78 73 69 69
30 30 33 31 29 37 43 50 65 76 83 88 92 94 95 93 94 92 90 91 87 86 85 83 82 80 76 73 71 68 66 68
36 30 33 34 33 31 30 38 46 57 70 78 83 85 81 80 84 84 86 90 87 85 82 74 72 68 65 66 65 67 68 67
36 32 32 32 34 33 31 32 34 41 46 52 57 59 65 65 67 72 75 75 73 71 69 64 64 64 64 65 66 63 64 69
32 33 34 31 32 33 33 33 36 37 39 43 45 49 49 53 55 57 60 63 65 69 70 64 61 63 63 65 62 65 73 72
33 30 34 35 35 33 32 36 37 39 41 42 46 47 51 54 56 59 58 59 61 62 62 60 60 62 63 66 69 72 75 73
38 39 34 36 38 41 36 35 37 39 42 44 45 47 49 52 54 56 56 57 59 60 61 58 61 62 68 74 74 76 74 77
38 39 41 41 43 45 43 41 40 39 42 46 48 48 48 49 51 52 54 54 55 58 61 64 66 68 72 74 77 75 78 81
39 42 45 45 48 47 43 40 43 47 50 47 49 53 55 54 55 56 56 55 59 62 65 67 69 71 72 73 72 77 86 89
41 44 44 45 45 43 42 43 40 47 54 56 55 52 52 55 58 58 61 64 68 67 67 71 69 69 73 76 82 88 89 89
41 42 44 43 43 42 40 39 37 34 38 47 50 50 53 56 55 55 60 72 70 74 74 75 75 78 86 88 85 83 86 84
46 43 47 45 43 48 46 41 39 39 38 42 47 51 52 52 51 56 54 52 52 57 67 74 74 82 84 84 83 86 86 77
53 52 48 43 44 45 49 47 44 39 37 39 40 43 47 49 50 49 51 51 55 59 59 62 66 74 76 76 76 78 76 73
49 46 47 48 44 50 52 53 50 46 40 39 40 43 46 48 49 50 52 53 57 57 60 62 62 64 64 65 68 69 69 67
48 49 54 55 52 52 54 55 51 50 48 46 48 50 52 52 49 51 57 64 64 61 62 64 63 66 71 74 73 72 75 75

GFSFLT1_prec_cthk_096.txt.gz
RH
39 37 29 31 34 48 57 63 64 65 64 67 78 88 89 91 90 95 97 94 93 88 88 82 79 81 77 73 69 64 61 65
40 38 29 28 34 46 59 62 63 66 66 70 78 87 91 96 95 98 98 97 95 88 88 89 97 76 72 71 70 67 69 72
40 37 29 29 36 44 52 60 63 64 68 78 84 88 92 94 96 99 98 98 93 89 83 78 77 81 78 75 73 74 76 81
39 37 32 29 35 37 48 52 61 62 63 74 81 86 91 95 97 99 99 98 93 87 82 84 80 79 83 85 85 85 80 81
37 38 33 29 33 35 41 48 55 65 67 71 76 82 85 90 95 97 96 93 89 88 90 85 83 87 90 92 87 83 85 86
37 37 33 29 32 34 35 41 47 63 71 71 76 82 86 88 90 90 92 92 91 93 92 88 88 91 92 91 88 87 85 83
36 37 34 30 31 32 34 35 39 49 62 74 77 79 81 84 85 87 88 91 94 94 92 91 90 90 94 86 90 85 81 77
36 36 32 30 29 31 31 34 38 44 48 57 66 74 76 75 74 78 79 85 89 88 88 90 90 91 86 83 88 85 79 73
37 35 32 30 27 28 29 31 35 40 44 46 50 51 53 54 56 67 77 83 86 90 89 85 81 82 86 85 76 68 70 72
38 35 33 30 27 26 27 30 33 35 38 43 46 47 49 49 53 56 62 68 74 78 75 74 72 70 78 71 67 70 72 79
38 38 36 32 28 27 27 30 32 35 38 39 43 46 46 49 53 54 55 55 58 61 63 65 65 70 69 65 71 75 69 69
39 40 37 37 36 32 32 34 35 36 36 38 42 46 48 48 47 50 51 53 55 56 57 58 59 60 61 64 69 74 72 67
44 42 41 41 39 41 39 39 38 36 34 37 41 44 51 54 57 56 54 55 54 53 55 59 61 64 67 70 74 78 81 80
49 51 47 43 43 43 46 42 41 39 36 37 39 44 47 53 59 60 61 62 62 66 66 68 73 74 75 76 76 78 79 79
56 57 57 50 49 48 46 48 45 46 44 42 39 41 45 50 53 55 59 61 63 68 66 63 67 74 80 78 80 84 88 88
55 54 56 61 55 52 52 51 54 49 48 43 41 40 41 45 46 48 50 53 56 58 59 60 66 72 71 69 73 76 79 79
51 53 57 54 55 53 53 54 52 51 47 43 43 43 43 44 47 51 56 58 59 58 60 61 67 65 62 64 67 71 73 77
45 51 55 61 57 55 54 52 49 50 49 47 48 48 49 48 51 55 56 56 58 57 58 61 63 60 61 63 67 75 77 80
47 52 56 60 62 60 58 56 54 54 52 55 58 56 54 55 56 59 56 53 53 56 58 59 60 62 66 73 79 81 80 81

GFSFLT1_prec_cthk_099.txt.gz
RH
38 40 39 31 27 26 39 53 55 57 61 68 68 77 82 92 93 94 97 93 80 79 72 65 60 60 63 65 66 60 57 56
39 40 40 31 24 26 37 50 55 56 57 60 73 82 87 87 99 96 95 97 89 81 75 73 73 69 68 71 76 67 63 64
41 41 39 32 22 29 33 45 54 55 57 61 75 82 87 91 93 95 94 93 92 90 83 84 82 79 75 79 75 72 70 70
42 40 38 32 22 30 32 39 47 58 55 66 74 79 84 92 96 95 94 97 95 94 91 89 93 94 81 80 80 77 76 76
38 36 37 32 24 31 33 34 41 57 58 62 71 79 80 89 95 96 99 99 98 95 92 90 92 89 92 89 86 81 84 80
33 32 36 32 24 31 33 34 38 50 66 65 73 75 78 85 91 96 99 98 98 98 94 89 97 97 96 91 88 89 86 86
30 34 38 33 25 31 33 34 40 46 55 69 72 75 79 83 87 87 92 95 95 94 92 90 92 90 93 92 92 89 90 89
32 34 39 32 27 29 31 34 39 47 52 57 67 72 76 78 83 87 89 87 92 93 93 88 89 93 92 93 94 90 88 87
31 35 35 31 27 27 27 30 34 41 48 54 55 57 59 62 67 71 78 87 91 90 89 92 93 90 90 91 90 88 85 85
35 33 31 32 27 27 25 30 33 38 42 46 51 53 52 52 55 67 76 81 84 88 89 89 85 85 82 83 81 81 81 79
43 33 30 32 29 27 27 30 34 38 42 45 45 48 52 53 52 57 64 70 77 84 84 78 75 70 69 71 75 75 80 78
41 34 32 34 35 30 28 31 32 38 40 41 43 45 48 50 52 52 55 56 58 62 64 64 64 67 68 67 67 71 73 72
54 41 39 36 39 40 38 37 39 37 38 40 42 44 47 52 52 50 48 48 50 52 54 56 59 58 59 59 60 66 69 71
61 55 47 40 41 42 43 44 44 44 41 38 40 41 46 49 51 54 58 58 59 61 64 64 65 66 64 66 70 74 74 77
69 66 51 48 43 43 48 47 46 45 47 43 42 43 43 45 51 54 55 58 61 64 66 67 65 65 65 69 77 81 82 83
48 59 73 56 55 49 48 52 52 45 48 48 45 44 44 42 45 49 53 55 56 57 56 58 60 59 59 69 71 73 78 76
58 57 58 71 60 54 51 51 54 54 48 50 47 45 44 44 45 45 47 48 53 55 57 61 63 61 60 68 69 70 71 72
63 58 59 63 73 80 62 56 57 56 53 49 49 47 49 49 49 49 51 52 55 55 55 57 59 59 60 66 72 77 78 81
51 56 55 53 54 62 79 66 53 54 56 52 54 52 54 58 56 55 57 57 58 58 58 60 62 63 62 65 71 76 81 87

GFSFLT1_prec_cthk_102.txt.gz
RH
35 34 38 41 38 31 24 28 45 52 55 61 68 74 84 92 93 95 99 95 90 73 67 52 47 45 49 51 53 55 54 54
37 38 40 45 41 32 22 27 41 53 53 60 65 78 88 91 96 97 96 98 91 82 66 54 47 48 52 54 55 55 57 56
39 42 43 45 42 30 22 27 37 49 56 59 66 80 89 91 99 97 98 98 92 87 72 59 53 58 62 66 66 63 61 58
37 42 42 46 42 29 22 27 31 44 54 56 68 82 86 94 98 98 97 94 92 91 83 74 71 67 71 72 74 70 67 67
40 42 42 46 41 29 23 26 27 41 54 55 68 75 81 92 99 98 98 98 95 93 87 82 80 75 77 77 75 76 74 74
41 42 46 45 36 29 23 26 28 38 53 58 65 73 79 89 95 98 99 97 94 92 91 91 90 88 86 83 84 83 79 76
43 44 50 42 34 30 24 25 27 38 47 60 64 70 77 85 91 97 98 98 96 96 96 95 96 96 97 96 92 88 82 83
41 45 50 39 34 29 24 25 25 36 44 51 64 73 77 83 88 93 95 97 98 97 98 96 95 95 94 96 97 92 89 88
42 43 46 40 34 25 23 24 25 31 38 46 51 62 71 75 82 88 91 95 95 98 98 98 99 96 97 97 95 93 93 91
52 51 43 41 33 24 20 21 26 31 36 39 42 43 46 49 56 67 79 88 96 99 99 98 97 96 96 96 96 93 93 91
56 47 40 39 32 25 21 21 24 32 35 37 40 44 46 49 52 60 70 79 88 93 97 97 95 92 92 93 92 89 90 90
70 54 47 40 35 27 23 23 24 34 36 36 38 41 45 48 50 55 61 69 78 87 94 92 89 84 81 81 76 75 77 79
69 64 56 42 38 35 28 27 27 30 36 36 37 41 43 45 46 50 55 56 61 67 73 75 73 72 70 68 69 69 74 76
74 73 71 62 45 43 40 35 33 36 38 38 36 38 43 49 53 52 50 50 52 55 56 58 61 62 62 62 64 65 67 70
67 78 76 74 71 61 47 43 39 39 40 42 40 38 40 47 51 56 59 59 60 61 62 66 66 67 68 68 70 73 75 79
70 72 82 77 77 72 71 59 53 51 44 42 44 45 42 42 47 51 56 60 63 65 66 68 70 70 69 69 70 74 74 80
77 71 72 80 79 80 73 71 70 65 60 50 45 45 46 46 44 45 48 51 53 55 57 59 60 61 61 64 66 66 69 69
83 78 75 70 72 81 73 69 73 74 72 64 56 52 49 46 48 50 50 51 54 56 55 54 55 55 55 58 64 67 69 69
69 74 69 70 62 59 64 78 78 78 72 68 67 59 56 54 55 56 57 61 63 62 58 58 60 59 58 62 65 66 66 70

GFSFLT1_prec_cthk_108.txt.gz
RH
29 29 31 31 31 32 36 39 43 42 34 32 38 49 55 64 73 88 97 98 98 99 98 93 89 87 81 65 48 60 64 62
31 32 34 33 34 34 37 41 44 41 33 31 37 44 56 63 70 88 99 99 98 98 98 94 93 91 77 63 49 56 65 59
32 34 36 35 38 38 40 43 43 42 35 31 37 42 56 61 70 87 95 96 96 97 96 95 94 91 80 68 48 63 66 55
33 36 37 37 38 39 41 45 44 42 35 32 35 42 57 60 74 87 93 98 97 96 97 97 97 87 77 52 44 56 57 60
31 37 37 37 41 39 43 46 48 43 34 31 34 45 56 60 72 82 88 96 99 95 97 97 91 78 61 37 36 49 54 53
30 37 39 38 41 42 45 46 46 43 34 31 35 48 57 62 71 79 87 95 97 95 94 87 70 59 43 34 39 51 57 62
31 36 40 42 44 45 45 46 44 40 33 30 36 49 58 65 69 80 86 98 98 98 96 86 75 69 55 51 51 60 59 63
34 40 40 45 47 47 48 47 44 35 31 30 38 49 58 66 69 76 88 98 98 98 95 92 87 78 67 57 54 61 67 68
43 45 47 51 50 51 52 45 44 32 28 31 37 45 56 66 71 76 88 98 97 93 96 95 93 84 73 69 66 72 78 82
52 54 52 56 54 53 53 53 45 31 26 31 37 43 48 55 62 71 84 90 97 96 95 94 95 93 88 93 90 90 91 93
58 56 60 62 57 57 56 56 43 32 31 36 40 42 43 46 48 57 66 78 93 95 95 96 96 95 93 93 92 92 92 94
71 66 72 67 63 62 60 56 39 33 34 39 47 48 45 45 46 52 58 67 78 86 96 99 98 98 95 95 94 95 95 97
84 83 82 75 69 70 65 56 40 35 35 40 45 48 47 49 49 50 56 64 71 77 86 98 97 98 98 98 97 96 97 96
88 90 88 84 80 71 69 55 41 37 38 42 44 46 48 49 51 53 56 56 62 72 79 90 91 94 96 96 94 95 98 95
87 93 91 89 83 76 78 62 49 39 39 42 43 44 45 47 51 54 55 56 58 58 66 76 80 84 89 88 90 89 85 82
93 89 91 96 87 87 83 78 55 47 46 46 41 41 45 45 45 52 56 61 60 58 57 57 63 68 75 80 80 80 77 74
92 92 92 84 87 90 84 80 66 59 58 57 55 50 45 45 44 45 52 55 60 64 67 69 68 69 72 74 75 75 74 72
84 84 89 89 83 87 91 82 78 73 71 72 71 67 61 54 51 48 47 50 55 58 61 66 71 74 75 75 76 76 76 75
84 80 82 81 82 85 87 87 80 80 79 79 80 79 77 73 67 61 53 51 52 54 56 58 61 64 69 71 71 70 69 68

GFSFLT1_prec_cthk_111.txt.gz
RH
26 27 26 28 30 32 33 35 38 43 49 50 43 34 36 41 55 64 72 83 94 98 96 94 91 91 90 86 74 55 54 53
26 28 28 28 31 33 34 37 39 44 48 51 44 36 36 39 53 63 70 83 98 98 99 97 94 91 90 84 79 67 57 59
27 28 28 27 32 34 38 40 43 49 52 51 42 37 36 40 54 61 68 89 94 98 99 99 96 95 92 89 85 80 56 58
26 26 26 26 33 36 40 42 43 47 53 49 42 38 37 43 57 61 68 87 89 96 98 98 97 98 95 90 87 83 54 60
22 26 26 26 34 40 42 45 45 47 51 47 39 37 37 45 58 61 72 82 90 99 98 98 99 96 96 95 89 71 58 54
24 25 27 28 36 39 44 49 49 50 52 45 37 36 38 49 60 65 74 80 88 98 99 99 98 96 97 94 88 76 63 51
30 24 26 28 38 42 46 49 52 53 55 45 34 35 41 50 62 66 71 77 88 98 99 99 97 98 97 97 93 77 62 59
32 30 27 30 38 46 50 54 55 57 57 47 33 36 43 50 61 66 71 79 92 98 99 98 99 98 99 93 80 65 50 48
36 35 34 35 42 47 54 59 61 61 60 42 33 37 43 51 60 70 69 83 95 99 97 99 97 97 91 74 52 42 42 44
40 39 42 42 47 54 58 63 66 65 60 35 32 39 44 47 50 54 63 81 90 98 99 99 95 82 83 75 61 58 57 60
43 45 51 54 52 59 63 67 70 66 51 33 32 40 44 46 47 50 60 70 84 95 99 98 93 90 86 78 73 71 72 75
49 51 61 64 63 66 70 71 73 67 48 33 33 42 44 46 46 50 59 64 72 87 91 94 94 93 95 88 82 79 81 84
52 58 69 73 73 73 74 78 78 69 47 33 33 43 46 46 46 49 58 62 74 80 79 95 94 96 93 93 91 91 90 89
53 61 74 84 82 82 83 86 80 69 49 34 34 42 45 46 47 48 54 61 66 71 78 90 93 98 94 96 97 94 93 93
59 64 75 86 92 93 91 90 85 72 51 35 32 41 44 46 49 50 51 55 60 64 72 79 89 96 97 96 95 95 95 94
66 71 79 83 92 97 95 91 91 76 60 42 38 39 43 44 49 51 53 56 57 57 62 68 75 81 86 87 96 89 87 87
78 82 79 90 94 97 98 97 91 78 69 53 48 48 45 45 46 48 51 54 56 61 62 59 58 65 71 76 88 82 86 84
75 81 82 86 94 93 96 96 91 85 82 64 58 60 58 54 50 48 49 51 54 55 59 63 66 66 67 70 77 85 82 92
72 80 79 80 87 91 93 93 95 89 83 71 76 76 72 69 65 61 56 52 50 54 55 58 62 66 69 72 74 75 76 76

GFSFLT1_prec_cthk_114.txt.gz
RH
28 27 26 24 24 28 32 35 35 37 39 43 46 51 50 33 34 38 46 56 65 72 87 94 97 97 97 93 94 88 64 57
29 27 26 24 24 27 32 36 38 37 40 44 47 51 50 36 33 36 45 59 64 77 90 97 97 98 96 93 93 84 65 58
28 28 27 24 25 27 32 36 40 39 42 48 51 53 49 35 34 35 46 59 62 82 92 95 97 98 98 95 93 88 70 59
26 27 28 27 26 29 33 35 40 42 48 51 54 57 50 36 33 37 49 57 63 81 89 96 96 98 97 95 95 92 81 62
24 25 26 27 28 30 31 37 41 47 51 52 53 58 52 36 34 42 52 60 68 78 87 95 98 96 98 97 96 92 86 73
28 24 24 24 28 30 30 34 42 47 51 55 57 61 53 35 36 47 53 63 70 79 88 93 98 98 96 97 98 98 89 84
33 31 27 27 30 30 32 36 43 48 53 58 60 61 45 33 37 47 55 63 66 74 87 94 98 98 99 98 97 98 93 90
35 36 33 32 34 34 35 41 47 50 53 56 59 58 40 33 40 47 54 62 67 81 87 98 98 97 97 98 98 98 95 92
38 36 38 38 36 35 38 42 51 53 55 57 61 54 39 35 43 45 52 62 68 82 91 99 99 98 99 99 98 98 97 84
40 39 39 41 42 39 39 43 52 58 60 65 66 49 39 38 42 41 43 50 70 85 94 98 98 99 99 98 98 99 99 87
42 42 42 43 47 46 43 46 55 62 66 69 65 50 40 39 41 41 41 50 66 84 92 98 99 98 98 99 99 99 97 89
47 43 45 45 53 53 52 53 61 67 70 72 60 49 40 39 40 41 42 52 63 81 90 94 98 96 98 98 96 88 78 59
46 46 47 49 54 60 60 60 66 73 76 71 58 51 42 41 40 42 44 53 60 68 89 91 97 94 94 94 82 72 72 65
48 46 48 54 59 68 70 73 74 79 79 70 61 55 44 43 42 43 44 52 57 66 73 90 98 96 92 89 79 80 83 83
53 51 54 57 67 76 77 79 83 82 79 72 63 57 46 45 44 42 44 50 56 62 68 83 94 96 95 94 93 93 90 89
58 55 59 64 72 79 86 85 85 87 82 74 64 58 47 45 45 45 46 48 52 58 63 70 79 90 98 96 92 91 94 93
64 60 64 68 80 79 85 91 93 92 88 77 69 61 48 45 45 46 47 49 51 53 56 61 69 78 84 89 91 91 98 97
62 65 66 69 74 89 85 90 95 97 95 85 77 66 54 48 46 48 48 49 51 52 53 56 58 60 65 67 70 76 80 82
69 69 72 72 73 84 88 91 97 99 95 89 80 74 69 62 53 50 50 52 52 53 54 56 57 59 60 64 67 72 76 77

GFSFLT1_prec_cthk_120.txt.gz
RH
36 34 31 29 27 27 27 28 28 27 31 32 33 34 36 39 39 41 46 45 32 31 37 53 69 74 76 79 85 93 95 95
40 37 35 32 32 29 29 30 30 30 30 34 36 37 35 39 42 42 45 48 36 29 33 46 62 70 73 79 85 89 96 97
43 43 39 36 35 34 33 31 32 31 29 34 38 39 36 38 41 44 46 50 42 31 31 39 56 64 69 77 87 91 98 95
39 41 40 39 37 35 34 33 34 34 33 37 40 43 41 39 41 45 46 50 45 32 31 38 49 61 63 76 88 93 96 93
36 35 37 35 35 33 32 34 35 37 37 36 37 40 39 41 40 44 48 50 46 36 30 38 46 55 63 73 89 93 98 91
28 30 31 32 33 31 31 32 37 39 36 38 41 45 43 45 44 46 48 52 51 38 31 38 45 55 63 74 89 95 97 96
32 33 34 36 37 37 35 34 38 38 36 41 44 45 49 47 47 49 48 54 50 41 33 38 46 54 64 71 82 91 98 96
42 48 52 49 46 46 42 39 41 42 40 43 44 48 55 55 51 52 51 55 49 43 37 38 46 56 64 71 74 84 91 96
54 61 57 51 53 45 42 40 40 50 43 45 46 52 59 62 56 56 56 57 51 49 42 39 44 53 62 67 72 92 94 98
54 50 46 44 41 42 39 41 39 41 44 46 52 59 63 64 59 60 63 59 54 49 43 41 43 46 54 66 85 92 96 99
53 49 43 39 39 39 39 43 43 43 45 50 56 60 63 61 62 64 65 57 55 47 38 39 42 50 65 77 88 97 98 98
54 48 42 39 39 40 41 43 48 49 46 55 60 62 64 65 66 70 66 59 56 45 38 40 46 56 71 87 91 95 97 98
51 45 42 40 42 43 43 43 48 52 55 56 58 63 66 67 71 73 63 59 54 43 39 43 49 58 74 88 97 99 99 99
50 43 41 41 43 45 46 49 51 57 58 59 61 63 66 70 75 68 64 61 55 43 42 45 52 60 71 87 96 98 98 98
58 48 42 43 45 50 51 56 55 59 62 66 67 67 69 74 74 67 65 65 57 43 44 46 54 63 76 81 95 98 98 98
47 47 44 45 45 48 56 60 61 63 69 71 70 70 74 79 71 71 68 72 58 45 45 49 56 68 81 80 91 97 98 98
58 43 44 46 49 50 54 62 67 70 74 76 75 74 76 77 75 76 70 76 58 47 48 50 56 64 75 83 89 94 94 94
66 58 49 47 51 50 51 54 63 69 79 79 81 82 80 77 77 77 82 80 60 49 49 53 56 62 73 85 92 95 92 87
80 65 54 50 47 49 50 51 59 65 81 82 84 85 86 81 78 84 86 81 67 56 53 53 58 59 64 77 84 87 88 89

GFSFLT1_prec_cthk_126.txt.gz
RH
40 39 36 34 33 31 29 29 28 30 31 32 34 34 32 29 29 33 35 39 42 45 50 48 44 42 47 54 64 72 74 79
47 49 44 40 37 31 30 29 28 29 34 34 36 33 34 33 31 33 38 40 43 46 50 52 51 43 43 51 59 68 74 80
45 47 51 47 42 38 32 30 29 29 33 32 36 36 35 36 35 36 39 41 44 46 50 55 54 51 46 48 56 64 71 78
46 49 45 51 48 43 38 33 30 29 30 35 40 43 43 41 38 40 42 43 44 47 51 57 58 55 50 46 52 61 67 72
46 48 47 50 49 45 43 39 35 33 32 36 38 39 39 37 36 37 42 46 50 49 53 58 60 57 54 46 49 57 65 69
41 46 46 49 51 50 44 42 39 35 35 39 42 44 41 40 41 40 46 48 51 51 52 57 60 59 57 50 48 53 61 69
39 42 51 53 50 51 51 48 43 40 42 43 43 43 43 44 44 44 46 49 51 51 52 57 61 61 59 53 51 50 55 66
38 38 51 53 53 49 51 50 44 46 47 47 46 44 44 46 46 46 47 49 51 50 53 57 59 63 62 58 53 49 52 60
43 38 43 46 49 53 52 50 49 49 51 48 46 47 50 51 52 49 51 50 51 51 55 57 60 61 63 60 55 48 52 55
55 51 51 50 52 51 51 50 47 48 50 53 51 53 53 58 58 55 51 49 51 53 57 60 59 57 58 60 55 50 52 54
59 61 61 61 56 54 57 55 55 55 55 55 55 56 61 66 61 56 55 58 56 55 62 64 59 57 59 58 55 49 50 56
79 77 76 71 72 61 64 60 57 55 55 57 57 55 54 55 56 56 60 59 59 62 66 67 63 62 60 57 53 49 49 57
74 76 78 70 70 69 68 60 51 47 48 51 53 62 61 62 63 61 57 60 63 66 72 70 64 62 59 57 53 49 55 60
75 81 76 68 66 63 57 52 47 45 45 46 51 57 62 65 67 62 71 72 69 69 70 70 66 61 58 58 54 50 54 60
80 84 78 73 67 61 54 51 50 51 50 51 51 54 59 64 59 66 74 75 74 72 71 71 63 59 58 61 56 52 59 69
97 93 83 79 72 59 53 52 52 53 55 57 57 59 60 68 81 79 74 73 75 76 74 71 64 60 60 65 60 55 62 68
97 94 88 84 74 61 50 46 48 56 60 60 63 62 68 71 73 76 73 72 71 73 73 71 68 64 66 72 68 56 61 70
97 94 89 80 68 53 47 45 44 44 51 64 66 68 70 69 82 88 82 74 72 72 73 72 71 67 71 73 67 58 65 78
96 92 88 82 72 55 45 42 44 44 45 50 65 69 71 70 75 79 76 81 82 75 75 76 72 71 75 77 68 61 67 84

GFSFLT1_prec_cthk_132.txt.gz
RH
4 4 14 35 42 47 51 53 44 41 53 55 52 46 41 38 36 33 32 32 32 35 39 41 41 45 44 42 45 51 55 58
6 5 4 13 32 41 47 47 41 42 52 56 54 51 43 41 37 35 36 35 33 35 39 41 42 44 46 48 47 46 48 52
8 8 7 6 13 29 43 45 46 42 43 50 54 54 53 47 44 39 41 40 37 35 39 41 42 44 46 49 51 49 46 47
13 10 9 6 9 14 32 44 47 45 41 48 52 54 60 56 49 44 41 43 41 38 40 43 43 45 45 48 52 53 51 48
17 13 9 7 7 10 17 38 45 45 43 46 46 42 44 44 46 43 44 47 45 43 43 46 46 46 48 50 53 55 55 54
21 15 9 8 7 9 18 27 41 46 44 46 44 43 40 41 46 47 48 53 51 48 47 50 51 51 51 53 55 56 58 56
26 18 12 9 9 10 19 30 30 43 45 46 46 47 45 45 45 48 49 50 54 51 52 52 52 53 54 56 57 57 59 59
43 31 17 10 11 10 19 25 32 37 43 47 53 54 52 48 46 47 49 49 54 51 57 57 53 52 54 56 57 59 61 61
64 48 29 15 12 9 21 29 47 46 46 54 60 59 57 55 53 53 52 58 55 54 59 59 54 52 57 59 59 58 61 63
67 49 34 26 22 18 25 40 54 59 57 66 68 65 60 61 64 64 68 67 57 56 63 63 55 58 61 64 61 60 60 65
75 57 49 42 33 34 45 50 63 65 66 74 74 70 72 73 77 74 75 69 62 63 62 65 65 63 64 64 64 62 63 68
74 75 68 72 55 54 58 60 79 92 83 82 82 80 81 85 86 85 79 71 67 64 66 74 66 65 64 63 64 64 64 70
81 94 96 96 86 77 73 83 90 85 83 88 86 83 76 80 89 84 87 80 75 75 78 74 67 66 65 65 65 65 65 66
94 97 98 97 92 85 82 87 88 96 94 88 90 89 84 86 85 88 88 82 76 75 82 84 71 67 66 66 66 64 63 65
98 98 98 98 96 97 89 92 90 93 90 95 94 91 88 94 91 89 81 75 76 78 80 85 80 70 67 67 69 70 70 69
98 98 98 96 97 98 97 95 96 91 87 82 75 71 71 74 73 68 71 72 72 74 81 89 91 80 78 69 73 72 70 70
98 98 98 96 88 88 91 89 84 79 76 76 74 71 63 59 59 62 58 64 66 74 79 79 82 97 87 80 72 70 70 66
97 98 97 97 89 83 79 75 73 69 68 71 69 69 71 68 67 62 61 63 68 69 79 85 92 87 79 79 80 72 70 67
87 96 96 92 89 84 77 70 64 60 57 54 55 61 63 70 70 72 69 67 70 77 87 88 86 85 78 77 75 74 72 68

GFSFLT1_prec_cthk_135.txt.gz
RH
8 7 7 7 5 19 36 40 51 55 58 66 58 52 56 48 38 34 33 33 34 34 37 39 38 41 42 44 40 40 48 53
15 10 8 8 7 5 18 38 43 57 59 63 53 49 51 54 44 37 35 36 35 34 36 38 40 39 42 45 46 44 44 45
21 21 13 10 9 7 5 20 41 46 55 55 52 49 52 59 51 41 37 36 35 35 36 36 40 41 42 44 45 48 49 46
40 37 36 22 12 10 6 7 24 42 52 57 54 57 65 67 55 48 43 39 37 37 37 37 39 42 42 43 45 48 51 53
48 45 46 27 18 12 9 7 13 32 53 57 58 54 54 53 50 52 46 43 43 44 43 40 40 42 44 45 47 48 50 54
68 73 71 33 21 17 11 7 11 19 41 51 51 48 42 52 60 54 53 51 50 47 48 45 42 42 46 48 48 49 51 54
96 92 71 50 22 18 12 8 12 17 26 40 48 42 46 53 51 51 48 50 56 51 51 50 46 46 47 51 52 53 53 53
99 81 69 58 35 16 9 11 11 16 22 32 41 44 48 48 47 48 43 45 53 54 53 52 52 52 51 52 53 55 55 55
98 87 72 64 42 22 12 11 12 18 19 22 36 42 54 51 49 49 47 46 47 53 54 55 57 56 56 55 59 58 56 57
93 93 70 58 47 36 25 13 13 19 22 27 30 37 49 53 56 53 52 52 52 54 60 58 60 59 62 61 58 60 62 61
93 97 80 59 51 40 30 27 26 28 32 38 36 42 50 50 59 61 60 59 54 57 69 68 64 63 63 66 61 62 64 65
97 98 86 62 50 45 44 36 42 40 48 50 51 62 68 62 67 72 71 67 68 67 75 72 68 66 63 65 66 63 66 69
95 99 90 76 65 56 49 47 53 58 53 51 63 73 88 88 85 80 82 83 75 83 88 85 72 66 67 69 66 66 66 66
97 97 95 85 82 76 62 58 57 63 69 70 73 71 91 91 93 92 82 79 77 81 86 82 84 80 75 69 70 66 65 67
97 97 97 98 97 94 85 76 80 74 81 79 85 83 92 95 92 88 86 82 78 78 91 92 95 94 88 76 69 70 71 66
97 96 97 98 98 96 96 94 91 98 93 96 98 95 95 93 90 91 86 85 90 95 94 92 93 96 91 89 79 74 74 69
93 97 97 97 97 97 97 99 98 98 98 96 94 92 94 94 91 90 85 82 83 87 91 90 90 91 94 94 93 90 76 75
93 96 97 97 95 89 87 87 89 90 93 90 84 80 77 74 74 76 77 80 86 84 83 87 89 92 92 98 97 92 81 76
88 90 94 92 92 87 81 78 75 71 67 66 70 74 74 78 80 77 71 66 70 77 76 80 86 83 97 89 88 84 81 80